| time (UTC) | temp C | wind direction | speed KPH | gust KPH | rain 1hr cm | rain 24hr cm | rain mn cm | humidity % | barometer mb |
| 20260503192522 | 13 | 270 | 9.7 | 29.0 | 0.00 | 0.00 | 0.00 | 36 | 1007.5 |
| 20260503191519 | 13 | 270 | 11.3 | 32.2 | 0.00 | 0.00 | 0.00 | 37 | 1007.5 |
| 20260503190519 | 13 | 293 | 14.5 | 32.2 | 0.00 | 0.00 | 0.00 | 36 | 1007.5 |
| 20260503185520 | 13 | 270 | 12.9 | 25.7 | 0.00 | 0.00 | 0.00 | 37 | 1007.6 |
| 20260503184519 | 13 | 248 | 11.3 | 29.0 | 0.00 | 0.00 | 0.00 | 39 | 1007.7 |
| 20260503183519 | 12 | 270 | 12.9 | 29.0 | 0.00 | 0.00 | 0.00 | 40 | 1007.9 |
| 20260503182520 | 13 | 270 | 12.9 | 25.7 | 0.00 | 0.00 | 0.00 | 39 | 1007.9 |
| 20260503181519 | 13 | 270 | 11.3 | 29.0 | 0.00 | 0.00 | 0.00 | 41 | 1008.0 |
| 20260503180519 | 12 | 270 | 9.7 | 20.9 | 0.00 | 0.00 | 0.00 | 41 | 1008.1 |
| 20260503175520 | 12 | 270 | 12.9 | 25.7 | 0.00 | 0.00 | 0.00 | 43 | 1008.1 |
| 20260503174519 | 11 | 270 | 12.9 | 30.6 | 0.00 | 0.00 | 0.00 | 43 | 1008.1 |
| 20260503173539 | 11 | 270 | 12.9 | 30.6 | 0.00 | 0.00 | 0.00 | 40 | 1008.2 |
| 20260503172519 | 11 | 270 | 6.4 | 20.9 | 0.00 | 0.00 | 0.00 | 41 | 1008.1 |
| 20260503171519 | 11 | 293 | 8.0 | 24.1 | 0.00 | 0.00 | 0.00 | 42 | 1008.2 |
| 20260503170520 | 11 | 293 | 14.5 | 30.6 | 0.00 | 0.00 | 0.00 | 41 | 1008.1 |
| 20260503150520 | 10 | 293 | 9.7 | 32.2 | 0.00 | 0.00 | 0.00 | 46 | 1008.6 |
| 20260503130520 | 8 | 293 | 9.7 | 19.3 | 0.00 | 0.00 | 0.00 | 57 | 1008.5 |
| 20260503110519 | 7 | 293 | 6.4 | 16.1 | 0.00 | 0.00 | 0.00 | 59 | 1007.9 |
| 20260503081519 | 7 | 0.0 | 3.2 | 0.00 | 0.00 | 0.00 | 59 | 1006.0 | |
| 20260503080539 | 7 | 0.0 | 1.6 | 0.00 | 0.00 | 0.00 | 60 | 1006.0 | |
| 20260503072519 | 8 | 0.0 | 1.6 | 0.00 | 0.00 | 0.00 | 58 | 1006.0 | |
| 20260503071540 | 8 | 0.0 | 1.6 | 0.00 | 0.00 | 0.00 | 57 | 1005.9 | |
| 20260503070540 | 8 | 0.0 | 3.2 | 0.00 | 0.00 | 0.00 | 56 | 1006.0 | |
| 20260503054519 | 9 | 293 | 1.6 | 8.0 | 0.00 | 0.00 | 0.00 | 52 | 1006.4 |
| 20260503053539 | 10 | 270 | 1.6 | 4.8 | 0.00 | 0.00 | 0.00 | 51 | 1006.3 |
| 20260503052539 | 10 | 270 | 1.6 | 11.3 | 0.00 | 0.00 | 0.00 | 51 | 1006.3 |
| 20260503051539 | 10 | 270 | 1.6 | 9.7 | 0.00 | 0.00 | 0.00 | 51 | 1006.5 |
| 20260503050519 | 10 | 270 | 1.6 | 8.0 | 0.00 | 0.00 | 0.00 | 51 | 1006.5 |
| 20260503045519 | 10 | 293 | 1.6 | 6.4 | 0.00 | 0.00 | 0.00 | 50 | 1006.6 |
| 20260503044539 | 10 | 293 | 1.6 | 6.4 | 0.00 | 0.00 | 0.00 | 50 | 1006.7 |
| 20260503043519 | 10 | 293 | 1.6 | 6.4 | 0.00 | 0.00 | 0.00 | 51 | 1006.8 |
| 20260503042519 | 10 | 293 | 1.6 | 4.8 | 0.00 | 0.00 | 0.00 | 51 | 1006.8 |
| 20260503041519 | 10 | 293 | 1.6 | 9.7 | 0.00 | 0.00 | 0.00 | 50 | 1006.9 |
| 20260503040519 | 10 | 0.0 | 1.6 | 0.00 | 0.00 | 0.00 | 51 | 1006.8 | |
| 20260503035519 | 10 | 270 | 1.6 | 3.2 | 0.00 | 0.00 | 0.00 | 51 | 1006.8 |
| 20260503034519 | 10 | 293 | 3.2 | 9.7 | 0.00 | 0.00 | 0.00 | 51 | 1006.7 |
| 20260503033521 | 10 | 270 | 1.6 | 6.4 | 0.00 | 0.00 | 0.00 | 53 | 1006.7 |
| 20260503032600 | 10 | 270 | 1.6 | 4.8 | 0.00 | 0.00 | 0.00 | 53 | 1006.7 |
| 20260503031519 | 10 | 293 | 3.2 | 6.4 | 0.00 | 0.00 | 0.00 | 53 | 1006.6 |
| 20260503030519 | 10 | 270 | 1.6 | 8.0 | 0.00 | 0.00 | 0.00 | 54 | 1006.7 |
| 20260503025519 | 10 | 293 | 3.2 | 9.7 | 0.00 | 0.00 | 0.00 | 54 | 1006.8 |
| 20260503024519 | 11 | 270 | 1.6 | 4.8 | 0.00 | 0.00 | 0.00 | 54 | 1006.7 |
| 20260503023540 | 11 | 293 | 1.6 | 3.2 | 0.00 | 0.00 | 0.00 | 53 | 1006.8 |
| 20260503022522 | 11 | 0.0 | 3.2 | 0.00 | 0.00 | 0.00 | 53 | 1006.9 | |
| 20260503021519 | 11 | 0.0 | 1.6 | 0.00 | 0.00 | 0.00 | 53 | 1006.8 | |
| 20260503020619 | 11 | 0.0 | 1.6 | 0.00 | 0.00 | 0.00 | 51 | 1006.8 | |
| 20260503015519 | 11 | 0.0 | 1.6 | 0.00 | 0.00 | 0.00 | 51 | 1006.6 | |
| 20260503014519 | 11 | 270 | 1.6 | 6.4 | 0.00 | 0.00 | 0.00 | 49 | 1006.8 |
| 20260503013519 | 11 | 270 | 1.6 | 9.7 | 0.00 | 0.00 | 0.00 | 50 | 1006.7 |
| 20260503012519 | 11 | 270 | 1.6 | 6.4 | 0.00 | 0.00 | 0.00 | 49 | 1006.8 |
| 20260503011540 | 11 | 270 | 1.6 | 3.2 | 0.00 | 0.00 | 0.00 | 49 | 1006.8 |
| 20260503010520 | 11 | 0.0 | 3.2 | 0.00 | 0.00 | 0.00 | 48 | 1006.6 | |
| 20260503005519 | 12 | 270 | 1.6 | 6.4 | 0.00 | 0.00 | 0.00 | 47 | 1006.4 |
| 20260503004519 | 12 | 0.0 | 3.2 | 0.00 | 0.00 | 0.00 | 47 | 1006.4 | |
| 20260503003519 | 12 | 270 | 1.6 | 3.2 | 0.00 | 0.00 | 0.00 | 46 | 1006.3 |
| 20260503002519 | 12 | 270 | 1.6 | 6.4 | 0.00 | 0.00 | 0.00 | 45 | 1006.1 |
| 20260503001519 | 12 | 293 | 1.6 | 6.4 | 0.00 | 0.00 | 0.00 | 44 | 1006.1 |
| 20260503000520 | 13 | 270 | 1.6 | 8.0 | 0.00 | 0.00 | 0.00 | 44 | 1005.9 |
| 20260502235540 | 13 | 270 | 3.2 | 8.0 | 0.00 | 0.00 | 0.00 | 43 | 1006.0 |
| 20260502234520 | 13 | 0.0 | 8.0 | 0.00 | 0.00 | 0.00 | 44 | 1005.9 | |
| 20260502233540 | 13 | 0.0 | 6.4 | 0.00 | 0.00 | 0.00 | 41 | 1005.9 | |
| 20260502232519 | 14 | 293 | 3.2 | 11.3 | 0.00 | 0.00 | 0.00 | 39 | 1006.0 |
| 20260502231520 | 15 | 270 | 3.2 | 8.0 | 0.00 | 0.00 | 0.00 | 39 | 1006.1 |
| 20260502230519 | 15 | 270 | 3.2 | 8.0 | 0.00 | 0.00 | 0.00 | 38 | 1006.0 |
| 20260502225519 | 15 | 293 | 3.2 | 8.0 | 0.00 | 0.00 | 0.00 | 40 | 1005.9 |
| 20260502224519 | 14 | 270 | 1.6 | 6.4 | 0.00 | 0.00 | 0.00 | 40 | 1005.9 |
| 20260502223520 | 14 | 270 | 3.2 | 11.3 | 0.00 | 0.00 | 0.00 | 40 | 1005.9 |
| 20260502222520 | 15 | 270 | 3.2 | 8.0 | 0.00 | 0.00 | 0.00 | 41 | 1005.8 |
| 20260502221519 | 14 | 270 | 3.2 | 11.3 | 0.00 | 0.00 | 0.00 | 42 | 1005.8 |
| 20260502220540 | 15 | 270 | 3.2 | 11.3 | 0.00 | 0.00 | 0.00 | 41 | 1005.9 |
| 20260502215519 | 15 | 293 | 3.2 | 12.9 | 0.00 | 0.00 | 0.00 | 39 | 1006.0 |
| 20260502214519 | 15 | 293 | 3.2 | 9.7 | 0.00 | 0.00 | 0.00 | 42 | 1006.0 |
| 20260502213519 | 15 | 270 | 3.2 | 6.4 | 0.00 | 0.00 | 0.00 | 42 | 1005.9 |
| 20260502212519 | 15 | 293 | 9.7 | 19.3 | 0.00 | 0.00 | 0.00 | 38 | 1005.9 |
| 20260502211519 | 15 | 270 | 6.4 | 14.5 | 0.00 | 0.00 | 0.00 | 39 | 1005.7 |
| 20260502210519 | 16 | 270 | 4.8 | 9.7 | 0.00 | 0.00 | 0.00 | 37 | 1005.5 |
| 20260502205539 | 16 | 270 | 6.4 | 12.9 | 0.00 | 0.00 | 0.00 | 35 | 1005.4 |
| 20260502204519 | 16 | 225 | 3.2 | 12.9 | 0.00 | 0.00 | 0.00 | 39 | 1005.3 |
| 20260502203519 | 15 | 270 | 6.4 | 11.3 | 0.00 | 0.00 | 0.00 | 39 | 1005.7 |
| 20260502202519 | 15 | 270 | 6.4 | 12.9 | 0.00 | 0.00 | 0.00 | 41 | 1005.7 |
| 20260502201539 | 15 | 293 | 4.8 | 14.5 | 0.00 | 0.00 | 0.00 | 43 | 1005.7 |
| 20260502200519 | 15 | 68 | 6.4 | 12.9 | 0.00 | 0.00 | 0.00 | 42 | 1005.9 |
| 20260502195519 | 15 | 293 | 4.8 | 17.7 | 0.00 | 0.00 | 0.00 | 43 | 1006.0 |
| 20260502194519 | 16 | 270 | 6.4 | 19.3 | 0.00 | 0.00 | 0.00 | 42 | 1006.1 |
| 20260502193519 | 16 | 225 | 3.2 | 12.9 | 0.00 | 0.00 | 0.00 | 45 | 1006.1 |